Regional Weather Roundup
Issued by NWS Newport/Morehead, NC

Current Version | Previous Version | Graphics & Text | Print | Product List | Glossary Off
Versions: 1 2 3 4 5 6 7 8 9 10 11 12 13 14 15 16 17 18 19 20 21 22 23 24 25 26 27 28 29 30 31 32 33 34 35 36 37 38 39 40 41 42 43 44 45 46 47 48 49 50

000
ASUS42 KMHX 241025
RWRMHX
WEATHER ROUNDUP FOR EASTERN NORTH CAROLINA
NATIONAL WEATHER SERVICE NEWPORT/MOREHEAD CITY NC
600 AM EDT TUE MAY 24 2016

NOTE: "FAIR" INDICATES FEW OR NO CLOUDS BELOW 12,000 FEET
WITH NO SIGNIFICANT WEATHER AND/OR OBSTRUCTIONS TO VISIBILITY

NCZ015>017-031-032-045>047-102-103-241100-
NORTH COAST

CITY           SKY/WX    TMP DP  RH WIND       PRES   REMARKS
EDENTON        CLEAR    N/A N/A N/A W5        30.03R
ELIZABETH CITY PTCLDY    55  52  89 W7        30.00R
KITTY HAWK     MOSUNNY   60  55  84 W6        30.00R
MANTEO         CLEAR     57  56  95 W6        30.02R

$$

NCZ045>047-081-094-103-104-241100-
CENTRAL COAST

CITY           SKY/WX    TMP DP  RH WIND       PRES   REMARKS
FRISCO         PTCLDY    64  53  67 W9G18     30.02R

$$

NCZ095-097-098-100-101-241100-
SOUTHERN COAST

CITY           SKY/WX    TMP DP  RH WIND       PRES   REMARKS
BEAUFORT       CLEAR     57  51  80 W5        30.04R
CEDAR ISLAND   NOT AVBL
JACKSONVILLE   PTCLDY    54  51  90 W3        30.05R
PINEY ISLAND   SUNNY    N/A N/A N/A W7        30.03R
WILMINGTON     PTCLDY    53  52  96 CALM      30.06R


$$

NCZ011>013-027>030-043-044-078>080-089-090>093-098-241100-
COASTAL PLAIN

CITY           SKY/WX    TMP DP  RH WIND       PRES   REMARKS
AHOSKIE        CLEAR     48  47  97 CALM      30.03R
CLINTON        CLEAR     51  51 100 CALM      30.07R
ELIZABETHTOWN  PTCLDY    55  52  92 CALM      30.07S
GOLDSBORO      CLEAR     53  53 100 W2        30.04R
GREENVILLE     CLEAR     54  52  94 W3        30.06R
HAVELOCK       CLEAR     53  50  89 W5        30.05R
KENANSVILLE    CLEAR     49  49  99 CALM      30.07R FOG
KINSTON        CLEAR     54  52  95 SW5       30.06R
NEW BERN       CLEAR     53  50  89 W3        30.05R
RICHLANDS      PTCLDY    48  48 100 W3        30.07R FOG
ROCKY MOUNT    PTCLDY    50  49  96 SW5       30.04R
WASHINGTON     CLEAR     53  50  90 W6        30.05R
WHITEVILLE     CLEAR     53  51  95 CALM      30.07R

$$

AMZ130-135-150-152-154-156-158-170-250-252-270-ANZ085-086-088-633-658-670-241100-
MARINE OBSERVATIONS

STATION/POSITION TIME  TEMP    WIND        PRES    WAVE   SWELL
                       AIR SEA DIR/SP/G            HT/PER HT/PER
                 (UTC) (F)     (DEG/KT/KT) (MB)    (FT/S) (FT/S)
CHESAPEAKE LIGHT 1000   60     290/ 13/ 14 1015.6
64 E VA BEACH    0950   57 57  250/  6/  8 1014.9    5/ 9   5/ 9
DUCK             1000   60 62  270/  6/  7 1015.2
2 E DUCK         0911      62                N/A     4/ 9   2/11
OREGON INLET     1000   59 64  280/  8/ 12 1015.9
13E OREGON INLT  1000      61                N/A     5/10   5/10
HATTERAS CG      1000   65 67  270/ 14/ 18 1016.0
DIAMOND BUOY     0950   65 67  270/ 12/ 14 1016.4    4/10   3/10
CAPE LOOKOUT     1000   64     290/ 11/ 13 1016.9
BEAUFORT LAB     1000   58 67  300/  5/  7 1016.6
30 SE NEW RVR IN 0925      73                N/A     2/ 9
27 SE WRIGHTSVLE 1008   66 72  300/  8/ 12 1017.5
5 SE WRIGHTSVLE  0908   62 71  320/ 10/ 12 1017.8
225 S CAPE HAT   0950   73 77  250/ 10/ 14 1016.8    4/ 7   3/ 7
41 SE CHARLESTON 0950   70 75   10/  8/ 10 1018.1    2/ 9   2/ 9

$$




USA.gov is the U.S. government's official web portal to all federal, state and local government web resources and services.